Regional Weather Roundup
Issued by NWS Nashville, TN

Home | Current Version | Previous Version | Text Only | Print | Product List | Glossary On
Versions: 1 2 3 4 5 6 7 8 9 10 11 12 13 14 15 16 17 18 19 20 21 22 23 24 25 26 27 28 29 30 31 32 33 34 35 36 37 38 39 40 41 42 43 44 45 46 47 48 49 50
000
ASUS44 KOHX 020915
RWROHX
MIDDLE TENNESSEE HOURLY WEATHER ROUNDUP
NATIONAL WEATHER SERVICE NASHVILLE TN
400 AM CDT TUE JUN 02 2015

NOTE: "FAIR" INDICATES FEW OR NO CLOUDS BELOW 12,000 FEET WITH
NO SIGNIFICANT WEATHER AND/OR OBSTRUCTIONS TO VISIBILITY.

* THESE REPORTS ARE NOT UNDER NWS QUALITY CONTROL AND MAY NOT
  REPORT WEATHER SUCH AS PRECIPITATION AND FOG.


TNZ005>011-023>034-057-059-062>066-078-080-021000
...NORTHERN MIDDLE TENNESSEE...

CITY           SKY/WX    TMP DP  RH WIND       PRES   REMARKS
CASTALIAN SPRG   N/A     59  59 100 N2        29.85F
CLARKSVILLE    CLOUDY    60  58  92 NE7       30.07S
CROSSVILLE     CLOUDY    64  61  90 NE5       30.05F FOG
GLADEVILLE*      N/A     59  59 100 N2        30.01S
JOELTON*         N/A     59  59 100 CALM      30.00S
MOUNT JULIET*    N/A     61  59  94 CALM      29.90F
NASHVILLE      CLOUDY    62  59  90 N7        30.06S
OLD HICKORY*     N/A     61  61 100 CALM      29.68F
PORTLAND       PTCLDY    57  55  94 NE5       30.05F
ROCKWOOD       CLOUDY    62  62 100 CALM      30.04S
SMYRNA         CLOUDY    62  60  93 NE6       30.06S
SPARTA         CLOUDY    63  63 100 N3        30.03S
$$
TNZ056-058-060-061-075>077-079-093>097-021000
...SOUTHERN MIDDLE TENNESSEE...

CITY           SKY/WX    TMP DP  RH WIND       PRES   REMARKS
COLUMBIA       CLOUDY    63  61  94 N5        30.04S
LEWISBURG      CLOUDY    62  60  93 N5        30.04F
MANCHESTER*      N/A     63   0   8 CALM      29.99S
MCMINNVILLE    CLOUDY    64  64 100 N5        30.04S
MOUNT PLEASANT   N/A     61  61 100 CALM      29.99S
SHELBYVILLE    CLOUDY    64  63  94 N7        30.05S
TULLAHOMA      CLOUDY    61  61 100 NW3       30.05S
WINCHESTER     CLOUDY    64  63  94 VRB5      30.04R
$$


...KEY TO REMARKS...
VSB - VISIBILITY IN MILES
WCI - WIND CHILL INDEX
HX  - HEAT INDEX




USA.gov is the U.S. government's official web portal to all federal, state and local government web resources and services.